Jendouba, Tunisia

3:11 PM CET on October 23, 2019 (GMT +0100)
Jendouba

Weather History for DTTN - August, 2019

Change the Weather History Date:

Thursday, August 8, 2019

  Actual Average (WUND) Record (WUND)
Temperature  
Mean Temperature 90 °F -  
Max Temperature 102 °F 95 °F - (-1)
Min Temperature 77 °F 65 °F - (-1)
Cooling Degree Days 24    
Growing Degree Days 40 (Base 50)    
Moisture  
Dew Point 55 °F    
Average Humidity 29    
Maximum Humidity 43    
Minimum Humidity 16    
Precipitation  
Precipitation 0.00 in 0.03 in - ()
Sea Level Pressure  
Sea Level Pressure 29.89 in    
Wind  
Wind Speed 4 mph ()    
Max Wind Speed 13 mph    
Max Gust Speed -    
Visibility 6.2 miles    
Events      
Averages and records for this station are not official NWS values.
T = Trace of Precipitation, MM = Missing Value Source: Averaged Metar Reports

Daily Weather History Graph

Daily Weather History Graph

Search for Another Location

Airport or City:

Astronomy

Aug. 08, 2019 Rise Set
Actual Time 5:36 AM CET 7:24 PM CET
Civil Twilight 5:08 AM CET 7:51 PM CET
Nautical Twilight 4:34 AM CET 8:25 PM CET
Astronomical Twilight 3:58 AM CET 9:01 PM CET
Moon 1:42 PM CET (8/8) No Moon Set
Length of Visible Light 14h 43m
Length of Day
13h 47m
First Quarter, 58% of the Moon is Illuminated
Aug 8
First Quarter
Aug 15
Full
Aug 23
Last Quarter
Aug 30
New
Sep 6
First Quarter

Hourly Weather History & Observations

Time (CET) Temp. Heat Index Dew Point Humidity Pressure Visibility Wind Dir Wind Speed Gust Speed Precip Events Conditions
12:00 AM 84.2 °F - 46.4 °F 27% 29.92 in 5.0 mi SSW 3.5 mph - N/A   Partly Cloudy
1:00 AM 85 °F - 49 °F 18% 29.88 in 5 mi SW 5.8 mph - -   Scattered Clouds
2:00 AM 84.2 °F - 48.2 °F 29% 29.89 in 5.0 mi Variable 2.3 mph - N/A   Partly Cloudy
3:00 AM 80.6 °F - 50.0 °F 34% 29.86 in - South 3.5 mph - N/A   Unknown
4:00 AM 80 °F - 49 °F 23% 29.84 in - SSW 2.3 mph - -  
4:00 AM 80.6 °F - 50.0 °F 34% 29.86 in - Variable 2.3 mph - N/A   Unknown
5:00 AM 80.6 °F - 50.0 °F 34% 29.86 in - Calm Calm - N/A   Unknown
6:00 AM 77.0 °F - 50.0 °F 39% 29.86 in 5.0 mi South 2.3 mph - N/A   Partly Cloudy
7:00 AM 82 °F - 52 °F 25% 29.85 in 6 mi Calm Calm - -   Scattered Clouds
7:00 AM 82.4 °F - 51.8 °F 35% 29.86 in 6.2 mi Calm Calm - N/A   Partly Cloudy
8:00 AM 91.4 °F - 50.0 °F 24% 29.86 in 6.2 mi NW 1.2 mph - N/A   Partly Cloudy
9:00 AM 95.0 °F - 50.0 °F 22% 29.89 in 6.2 mi NNW 4.6 mph - N/A   Partly Cloudy
10:00 AM 95 °F - 60 °F 21% 29.87 in 9 mi NW 11.5 mph - -   Scattered Clouds
11:00 AM 98.6 °F 99.4 °F 60.8 °F 29% 29.89 in 6.2 mi NNW 10.4 mph - N/A   Partly Cloudy
12:00 PM 100.4 °F 98.8 °F 55.4 °F 22% 29.89 in 6.2 mi NNW 11.5 mph - N/A   Partly Cloudy
2:00 PM 102.2 °F 102.4 °F 59.0 °F 24% 29.86 in 6.2 mi North 11.5 mph - N/A   Partly Cloudy
3:00 PM 100.4 °F 101.3 °F 60.8 °F 27% 29.86 in 6.2 mi North 12.7 mph - N/A   Partly Cloudy
4:00 PM 100 °F - 58 °F 16% 29.84 in 9 mi North 11.5 mph - -   Scattered Clouds
5:00 PM 96.8 °F 98.0 °F 62.6 °F 32% 29.89 in 6.2 mi NNW 11.5 mph - N/A   Partly Cloudy
7:00 PM 91 °F - 60 °F 25% 29.88 in 9 mi NNW 12.7 mph - -   Partly Cloudy
7:00 PM 100.4 °F 99.7 °F 57.2 °F 24% 29.86 in 6.2 mi North 11.5 mph - N/A   Partly Cloudy
8:00 PM 91.4 °F 89.9 °F 57.2 °F 31% 29.92 in 6.2 mi NW 9.2 mph - N/A   Scattered Clouds
9:00 PM 89.6 °F 87.7 °F 55.4 °F 31% 29.95 in 6.2 mi NNW 4.6 mph - N/A   Scattered Clouds
10:00 PM 87 °F - 63 °F 34% 29.95 in 5 mi NNE 1.2 mph - -   Partly Cloudy
10:00 PM 87.8 °F 88.5 °F 62.6 °F 43% 29.98 in 6.2 mi Variable 1.2 mph - N/A   Scattered Clouds
11:00 PM 86.0 °F 86.1 °F 60.8 °F 43% 29.95 in 5.0 mi NNE 3.5 mph - N/A   Scattered Clouds